[[{"header":{"parameterUnit":"m.s-1","parameterCategory":1,"la1":30.2991,"la2":30.254,"lo1":-89.0895,"lo2":-89.0444,"dy":0.0017,"dx":0.0017,"nx":28,"ny":28,"refTime":"2025-07-22T03:00:00:Z","depth":0,"parameterNumber":2,"parameterNumberName":"U-component_of_WINDS"},"data":[0,0,0,0,0,0,0,0,0,0,0,0,0,0,0,0,0,0,0,0,0,0,0,0,0,0,0,0,0,0,0,0,0,0,0,0,0,0,0,0,0,0,0,0,0,0,0,0,0,0,0,0,0,0,0,0,0,0,2.7741,2.7742,0,2.781,2.7811,2.7812,2.7718,2.7715,2.7711,2.7708,2.7782,2.7787,2.7792,0,0,0,0,0,0,0,0,0,0,0,0,0,2.7534,2.7538,2.7741,2.7742,2.7743,2.781,2.7811,2.7812,2.7718,2.7714,2.771,2.7706,2.7781,2.7787,2.7793,0,0,0,0,0,0,0,0,0,0,0,0,0,2.7616,2.754,2.7741,2.7704,2.7702,2.781,2.7811,2.7812,2.7719,2.7714,2.7709,2.7704,2.7779,2.7786,2.7794,2.7943,0,0,2.7817,2.7821,0,0,0,0,0,0,0,0,2.7611,2.7623,2.7709,2.7707,2.7704,2.775,2.7765,2.7856,2.7721,2.7713,2.7708,2.7702,2.7776,2.7784,2.7808,2.7946,2.7949,2.7818,2.7823,2.7826,2.7828,0,0,0,0,0,0,0,2.7606,2.762,2.7769,2.771,2.7707,2.7686,2.7692,2.7782,2.7772,2.7713,2.7706,2.7716,2.7774,2.7801,2.7809,2.795,2.7818,2.7825,2.7829,2.7832,2.8218,2.8223,0,0,0,0,0,0,2.7604,2.7616,2.7766,2.7771,2.7644,2.7694,2.7701,2.7741,2.7771,2.777,2.772,2.7711,2.779,2.78,2.7811,2.7989,2.7826,2.7833,2.7837,2.8212,2.8219,2.8225,0,0,0,0,0,0,2.76,2.7618,2.7764,2.7691,2.7708,2.7703,2.7749,2.7745,2.7771,2.7776,2.7774,2.7749,2.7786,2.78,2.7911,2.799,2.7837,2.7843,2.8205,2.8214,2.8222,2.8345,0,0,0,0,0,0,2.7594,2.7617,2.7672,2.7693,2.7713,2.7861,2.7753,2.775,2.7784,2.7773,2.7802,2.7802,2.7783,2.79,2.7919,2.7998,2.785,2.8198,2.8209,2.8219,2.8334,2.8357,2.8376,0,0,0,0,0,2.7587,2.7704,2.7675,2.7694,2.7781,2.7866,2.7877,2.7851,2.7791,2.7847,2.7851,2.7802,2.7979,2.7912,2.7932,2.8015,2.8193,2.8206,2.8218,2.8325,2.8352,2.8376,0,0,0,0,0,0,2.7692,2.7706,2.7674,2.7801,2.7833,2.7849,2.7919,2.7881,2.7931,2.7919,2.7887,2.7894,2.8013,2.8025,2.7951,2.8163,2.8076,2.8094,2.815,2.8177,2.8197,2.8192,2.7856,0,0,0,0,0,2.773,2.7797,2.7805,2.7917,2.7935,2.7925,2.7961,2.7939,2.7971,2.7984,2.7995,2.8029,2.8093,2.8135,2.8194,2.8336,2.8342,2.8403,2.8424,2.8442,2.8457,2.8536,2.8564,2.8266,2.8266,2.8266,0,0,2.781,2.7825,2.7869,2.7939,2.796,2.8032,2.7936,2.8015,2.8068,2.7996,2.8101,2.8112,2.8148,2.8276,2.8332,2.8289,2.8541,2.8458,2.8471,2.8477,2.8552,2.858,2.8605,2.8275,2.8273,2.8272,0,0,2.799,2.8008,2.8104,2.8128,2.8163,2.8156,2.818,2.8203,2.8207,2.8312,2.826,2.8324,2.8433,2.8462,2.8491,2.8687,2.8644,2.8707,2.8817,2.8895,2.8918,2.8939,2.901,2.9036,2.8722,2.8723,2.8723,0,2.8085,2.8188,2.8158,2.8242,2.8275,2.8213,2.8311,2.8337,2.839,2.8415,2.8366,2.8504,2.8524,2.8658,2.8707,2.8732,2.8759,2.8703,2.8917,2.8937,2.8956,2.9024,2.9051,2.873,2.8729,2.8728,2.8728,0,2.8304,2.8377,2.845,2.8503,2.8544,2.8635,2.8621,2.8667,2.8643,2.8642,2.8752,2.8774,2.8837,2.8868,2.8844,2.9001,2.8973,2.8921,2.8834,2.8992,2.9056,2.9082,2.8741,2.8738,2.8736,2.8734,0,0,2.855,2.8587,2.8615,2.8639,2.8674,2.8731,2.882,2.8881,2.8923,2.8962,2.9038,2.9134,2.9086,2.912,2.9099,2.9167,2.9324,2.9107,2.9107,2.9148,2.95,2.954,2.957,2.9296,2.9301,2.9305,2.9498,0,2.8732,2.8884,2.8862,2.901,2.9079,2.9023,2.9101,2.9133,2.9136,2.9196,2.9199,2.9268,2.92,2.922,2.9284,2.9291,2.9394,2.9277,2.9368,2.9372,2.9361,2.9603,2.9644,2.9825,2.9522,2.9526,2.9529,0,2.8963,2.9011,2.9166,2.9194,2.9222,2.9292,2.9348,2.9406,2.9442,2.9439,2.9478,2.9447,2.9539,2.9451,2.9578,2.9499,2.9536,2.9545,2.9552,2.9559,2.946,2.9618,2.9882,2.9909,2.9568,2.9565,2.9562,0,2.913,2.9233,2.934,2.9362,2.9396,2.9448,2.9465,2.9495,2.9535,2.9585,2.961,2.9671,2.9704,2.9753,2.974,2.9676,2.9872,2.9781,2.9874,2.9875,2.9917,2.9915,3.0191,2.994,2.994,2.9939,2.9939,0,2.9335,2.9432,2.9415,2.9481,2.959,2.9565,2.9674,2.9684,2.9713,2.9781,2.9737,2.9802,2.9781,2.9846,2.9837,2.9946,2.9961,2.9963,2.996,2.9967,2.9967,2.9991,2.9978,2.9946,2.9945,2.9944,2.9942,0,2.9538,2.953,2.9643,2.9667,2.9676,2.9755,2.9776,2.984,2.984,2.9928,2.9947,2.9948,3.0023,3.0015,3.0099,3.0093,3.0229,3.0209,3.0216,3.0212,3.0306,3.0298,3.0607,3.0647,3.037,3.0372,3.0375,0,2.9669,2.9743,2.9776,2.9818,2.9839,2.9907,2.9948,2.9927,2.9972,3.002,3.0078,3.0149,3.0205,3.0328,3.0338,3.0403,3.0386,3.049,3.0395,3.0402,3.0389,3.0385,3.0393,3.0508,3.0512,3.0514,3.0516,0,2.9904,2.9897,2.9956,3.0016,3.0065,3.0111,3.0153,3.019,3.0174,3.0227,3.0303,3.0346,3.0433,3.0505,3.0568,3.0587,3.0551,3.0546,3.0571,3.058,3.0581,3.0584,3.0268,3.0539,3.0537,3.0535,3.0534,3.0533,3.0076,3.014,3.0174,3.0242,3.0271,3.0312,3.0373,3.0382,3.0445,3.0513,3.0498,3.0585,3.0622,3.0702,3.0728,3.0797,3.0759,3.0795,3.0805,3.0814,3.0826,3.0571,3.0808,3.0808,3.0807,3.0807,3.0806,0,3.0309,3.0329,3.0392,3.0452,3.0507,3.0467,3.0512,3.0561,3.0637,3.0675,3.0731,3.0821,3.0891,3.0908,3.0976,3.1028,3.1014,3.1047,3.1043,3.1049,3.0855,3.0827,3.1058,3.1058,3.1058,3.1058,3.1058,3.1058,3.0437,3.0544,3.0542,3.0665,3.0684,3.0768,3.0797,3.0836,3.0866,3.0967,3.1026,3.1035,3.1066,3.1137,3.1201,3.1204,3.1232,3.1272,3.1269,3.1087,3.1062,3.1038,3.1012,3.1278,3.1279,3.1458,3.1459,3.1461]},{"header":{"parameterUnit":"m.s-1","parameterCategory":1,"la1":30.2991,"la2":30.254,"lo1":-89.0895,"lo2":-89.0444,"dy":0.0017,"dx":0.0017,"nx":28,"ny":28,"refTime":"2025-07-22T03:00:00:Z","depth":0,"parameterNumber":3,"parameterNumberName":"V-component_of_WINDS"},"data":[0,0,0,0,0,0,0,0,0,0,0,0,0,0,0,0,0,0,0,0,0,0,0,0,0,0,0,0,0,0,0,0,0,0,0,0,0,0,0,0,0,0,0,0,0,0,0,0,0,0,0,0,0,0,0,0,0,0,0.119,0.119,0,0.1211,0.1212,0.1212,0.1187,0.1186,0.1185,0.1184,0.1207,0.1209,0.121,0,0,0,0,0,0,0,0,0,0,0,0,0,0.1127,0.1128,0.119,0.119,0.119,0.1211,0.1212,0.1212,0.1187,0.1186,0.1185,0.1184,0.1207,0.1209,0.121,0,0,0,0,0,0,0,0,0,0,0,0,0,0.1152,0.1129,0.119,0.118,0.118,0.1211,0.1212,0.1212,0.1188,0.1186,0.1185,0.1183,0.1206,0.1208,0.1211,0.1252,0,0,0.1217,0.1218,0,0,0,0,0,0,0,0,0.1151,0.1154,0.1182,0.1181,0.1181,0.1195,0.1198,0.1226,0.1188,0.1185,0.1184,0.1183,0.1204,0.1207,0.1214,0.1253,0.1254,0.1217,0.1219,0.122,0.122,0,0,0,0,0,0,0,0.1149,0.1153,0.1198,0.1182,0.1181,0.1175,0.1177,0.1203,0.1202,0.1185,0.1183,0.1186,0.1204,0.1212,0.1214,0.1255,0.1217,0.1219,0.1221,0.1222,0.1329,0.133,0,0,0,0,0,0,0.1148,0.1152,0.1198,0.1199,0.1162,0.1178,0.118,0.1192,0.1202,0.1202,0.1187,0.1185,0.1209,0.1212,0.1215,0.1264,0.122,0.1222,0.1223,0.1327,0.1329,0.1331,0,0,0,0,0,0,0.1147,0.1153,0.1197,0.1175,0.118,0.118,0.1194,0.1193,0.1201,0.1203,0.1203,0.1195,0.1208,0.1212,0.1243,0.1265,0.1223,0.1225,0.1325,0.1328,0.133,0.1363,0,0,0,0,0,0,0.1145,0.1152,0.1168,0.1176,0.1181,0.1225,0.1195,0.1194,0.1205,0.1202,0.1211,0.1211,0.1207,0.124,0.1245,0.1267,0.1227,0.1323,0.1326,0.1329,0.136,0.1366,0.1372,0,0,0,0,0,0.1143,0.1177,0.1169,0.1175,0.1201,0.1226,0.1229,0.1223,0.1207,0.1223,0.1224,0.1211,0.1261,0.1243,0.1249,0.1272,0.1322,0.1326,0.1329,0.1358,0.1365,0.1371,0,0,0,0,0,0,0.1173,0.1178,0.1169,0.1206,0.1216,0.1222,0.1242,0.1231,0.1246,0.1243,0.1235,0.1237,0.127,0.1274,0.1254,0.1312,0.1289,0.1294,0.1309,0.1316,0.1321,0.132,0.1228,0,0,0,0,0,0.1184,0.1203,0.1206,0.1239,0.1244,0.1242,0.1253,0.1247,0.1257,0.126,0.1264,0.1274,0.1292,0.1304,0.1321,0.136,0.1362,0.1379,0.1384,0.1389,0.1393,0.1414,0.1422,0.1342,0.1342,0.1342,0,0,0.1206,0.1211,0.1224,0.1245,0.1252,0.1272,0.1246,0.1268,0.1283,0.1264,0.1294,0.1297,0.1307,0.1343,0.1358,0.1347,0.1416,0.1393,0.1397,0.1399,0.1419,0.1426,0.1433,0.1344,0.1344,0.1343,0,0,0.1258,0.1264,0.1292,0.1298,0.1309,0.1307,0.1313,0.1321,0.1322,0.1351,0.1337,0.1354,0.1385,0.1393,0.1401,0.1455,0.1444,0.146,0.1491,0.1511,0.1517,0.1523,0.1542,0.1549,0.1465,0.1465,0.1465,0,0.1285,0.1315,0.1307,0.1331,0.134,0.1323,0.135,0.1358,0.1373,0.138,0.1366,0.1404,0.141,0.1447,0.146,0.1467,0.1474,0.146,0.1517,0.1522,0.1528,0.1546,0.1553,0.1467,0.1467,0.1466,0.1466,0,0.1348,0.1369,0.139,0.1404,0.1416,0.1442,0.1437,0.145,0.1443,0.1443,0.1473,0.1479,0.1496,0.1504,0.1498,0.154,0.1532,0.1518,0.1495,0.1537,0.1554,0.1561,0.147,0.1469,0.1468,0.1468,0,0,0.142,0.1429,0.1437,0.1443,0.1452,0.1469,0.1493,0.1509,0.1521,0.1531,0.1552,0.1578,0.1564,0.1573,0.1567,0.1585,0.1627,0.1569,0.1569,0.158,0.1674,0.1685,0.1693,0.1619,0.162,0.1621,0.1673,0,0.1472,0.1514,0.1507,0.1549,0.1568,0.1551,0.1572,0.158,0.158,0.1596,0.1596,0.1615,0.1595,0.1601,0.1618,0.1619,0.1646,0.1615,0.1638,0.1639,0.1637,0.1702,0.1714,0.1762,0.168,0.1681,0.1681,0,0.1539,0.1551,0.1594,0.16,0.1608,0.1627,0.1641,0.1657,0.1665,0.1664,0.1674,0.1664,0.1688,0.1664,0.1697,0.1676,0.1685,0.1686,0.1688,0.1691,0.1663,0.1707,0.1778,0.1785,0.1692,0.1691,0.169,0,0.1587,0.1615,0.1644,0.165,0.1657,0.1671,0.1675,0.1682,0.1692,0.1704,0.1711,0.1726,0.1734,0.1746,0.1741,0.1723,0.1775,0.175,0.1775,0.1775,0.1787,0.1786,0.1861,0.1792,0.1792,0.1792,0.1791,0,0.1646,0.1673,0.1666,0.1684,0.1713,0.1705,0.1734,0.1736,0.1742,0.176,0.1746,0.1763,0.1755,0.1771,0.1767,0.1795,0.1799,0.1799,0.1798,0.18,0.1801,0.1807,0.1804,0.1794,0.1793,0.1793,0.1792,0,0.1706,0.1702,0.1733,0.1737,0.1738,0.176,0.1763,0.178,0.1779,0.1801,0.1806,0.1804,0.1823,0.1818,0.1839,0.1836,0.1871,0.1865,0.1868,0.1867,0.1892,0.189,0.1974,0.1984,0.1908,0.1909,0.1909,0,0.1744,0.1765,0.1771,0.1781,0.1786,0.1804,0.1814,0.1806,0.1817,0.1827,0.1843,0.186,0.1873,0.1904,0.1904,0.1919,0.1914,0.1942,0.1916,0.1918,0.1915,0.1914,0.1916,0.1948,0.1949,0.1949,0.195,0,0.1813,0.181,0.1825,0.1839,0.1851,0.1862,0.1871,0.1881,0.1874,0.1887,0.1905,0.1916,0.1936,0.1953,0.1967,0.1971,0.1959,0.1958,0.1964,0.1968,0.1969,0.1969,0.1883,0.1956,0.1956,0.1955,0.1955,0.1955,0.1863,0.188,0.1887,0.1904,0.191,0.1919,0.1935,0.1935,0.195,0.1966,0.196,0.1981,0.1988,0.2006,0.2011,0.2028,0.2017,0.2026,0.2029,0.2032,0.2035,0.1966,0.203,0.203,0.203,0.2029,0.2029,0,0.1931,0.1934,0.195,0.1963,0.1977,0.1964,0.1973,0.1985,0.2004,0.2012,0.2025,0.2046,0.2062,0.2064,0.2079,0.2092,0.2087,0.2096,0.2095,0.2096,0.2043,0.2036,0.21,0.21,0.21,0.21,0.21,0.21,0.1968,0.1996,0.1993,0.2024,0.2027,0.2048,0.2054,0.2063,0.2068,0.2093,0.2106,0.2106,0.2111,0.2126,0.2141,0.2141,0.2147,0.2159,0.2156,0.2107,0.21,0.2093,0.2087,0.216,0.216,0.2208,0.2209,0.2209]}]]